Weather History for Puyallup, WA

Change the Weather History Date:

Thursday, August 29, 2013

  Actual Average (KTCM) Record (KTCM)
Temperature  
Mean Temperature 68 °F -  
Max Temperature 75 °F 73 °F 91 °F (1996)
Min Temperature 62 °F 50 °F 37 °F (1980)
Cooling Degree Days 4    
Growing Degree Days 18 (Base 50)    
Moisture  
Dew Point 65 °F    
Average Humidity 97    
Maximum Humidity 100    
Minimum Humidity 73    
Precipitation  
Precipitation 0.84 in - - ()
Sea Level Pressure  
Sea Level Pressure 29.94 in    
Wind  
Wind Speed 0 mph (WSW)    
Max Wind Speed 5 mph    
Max Gust Speed -    
Visibility 9 miles    
Events Rain    
Averages and records for this station are not official NWS values.
T = Trace of Precipitation, MM = Missing Value Source: NWS Daily Summary

Daily Weather History Graph

Daily Weather History Graph

Search for Another Location

Airport:

Trip Planner

Search our weather history database for the weather conditions in past years. The results will help you decide how hot, cold, wet, or windy it might be!

Date:

Astronomy

Aug. 29, 2013 Rise Set
Actual Time 6:24 AM PDT 7:54 PM PDT
Civil Twilight 5:53 AM PDT 8:25 PM PDT
Nautical Twilight 5:14 AM PDT 9:04 PM PDT
Astronomical Twilight 4:32 AM PDT 9:45 PM PDT
Moon 12:08 AM PDT 3:39 PM PDT
Length of Visible Light 14h 32m
Length of Day
13h 29m
Last Quarter, 37% of the Moon is Illuminated
Aug 29
Last Quarter
Sep 5
New
Sep 12
First Quarter
Sep 19
Full
Sep 26
Last Quarter

Hourly Weather History & Observations

Time (PDT) Temp. Dew Point Humidity Pressure Visibility Wind Dir Wind Speed Gust Speed Precip Events Conditions
12:15 AM 64.4 °F 64.4 °F 100% 29.93 in 10.0 mi Calm Calm - N/A Rain Light Rain
12:35 AM 64.4 °F 64.4 °F 100% 29.92 in 10.0 mi Calm Calm - N/A Rain Light Rain
12:55 AM 64.4 °F 64.4 °F 100% 29.93 in 10.0 mi Calm Calm - N/A   Mostly Cloudy
1:15 AM 64.4 °F 64.4 °F 100% 29.93 in 10.0 mi Calm Calm - N/A Rain Light Rain
1:35 AM 64.4 °F 64.4 °F 100% 29.92 in 10.0 mi Calm Calm - 0.01 in Rain Light Rain
1:55 AM 64.4 °F 64.4 °F 100% 29.93 in 10.0 mi Calm Calm - 0.01 in Rain Light Rain
2:15 AM 64.4 °F 64.4 °F 100% 29.91 in 10.0 mi Calm Calm - N/A Rain Light Rain
2:35 AM 64.4 °F 64.4 °F 100% 29.92 in 10.0 mi Calm Calm - 0.01 in Rain Light Rain
2:55 AM 64.4 °F 64.4 °F 100% 29.92 in 10.0 mi Calm Calm - 0.02 in Rain Light Rain
3:15 AM 64.4 °F 64.4 °F 100% 29.93 in 7.0 mi Calm Calm - 0.02 in Rain Light Rain
3:35 AM 62.6 °F 62.6 °F 100% 29.92 in 4.0 mi Calm Calm - 0.03 in Rain Light Rain
3:55 AM 64.4 °F 64.4 °F 100% 29.92 in 5.0 mi Calm Calm - 0.05 in Rain Light Rain
4:15 AM 64.4 °F 64.4 °F 100% 29.92 in 6.0 mi Calm Calm - 0.04 in Rain Light Rain
4:35 AM 64.4 °F 64.4 °F 100% 29.90 in 4.0 mi Calm Calm - 0.10 in Rain Rain
4:55 AM 64.4 °F 64.4 °F 100% 29.90 in 7.0 mi Calm Calm - 0.13 in Rain Light Rain
5:15 AM 62.6 °F 62.6 °F 100% 29.89 in 9.0 mi Calm Calm - 0.02 in Rain Light Rain
5:35 AM 62.6 °F 62.6 °F 100% 29.90 in 7.0 mi Calm Calm - 0.05 in Rain Light Rain
5:55 AM 62.6 °F 62.6 °F 100% 29.88 in 8.0 mi Calm Calm - 0.07 in Rain Light Rain
6:15 AM 62.6 °F 62.6 °F 100% 29.89 in 10.0 mi Calm Calm - N/A Rain Light Rain
6:35 AM 62.6 °F 62.6 °F 100% 29.87 in 10.0 mi Calm Calm - N/A Rain Light Rain
6:55 AM 62.6 °F 62.6 °F 100% 29.87 in 10.0 mi Calm Calm - 0.01 in   Overcast
7:15 AM 62.6 °F 62.6 °F 100% 29.87 in 9.0 mi Calm Calm - N/A Rain Light Rain
7:35 AM 62.6 °F 62.6 °F 100% 29.89 in 10.0 mi Calm Calm - N/A Rain Light Rain
7:55 AM 62.6 °F 62.6 °F 100% 29.90 in 9.0 mi Calm Calm - 0.02 in Rain Light Rain
8:15 AM 62.6 °F 62.6 °F 100% 29.91 in 8.0 mi Calm Calm - 0.01 in Rain Light Rain
8:35 AM 62.6 °F 62.6 °F 100% 29.89 in 5.0 mi Calm Calm - 0.06 in   Mostly Cloudy
8:55 AM 62.6 °F 62.6 °F 100% 29.89 in 10.0 mi Calm Calm - 0.07 in Rain Light Rain
9:15 AM 62.6 °F 62.6 °F 100% 29.89 in 10.0 mi Calm Calm - N/A Rain Light Rain
9:35 AM 62.6 °F 62.6 °F 100% 29.88 in 10.0 mi Calm Calm - N/A Rain Light Rain
9:55 AM 64.4 °F 64.4 °F 100% 29.88 in 10.0 mi Calm Calm - N/A   Overcast
10:15 AM 64.4 °F 64.4 °F 100% 29.89 in 10.0 mi Calm Calm - N/A   Overcast
10:35 AM 66.2 °F 64.4 °F 94% 29.90 in 10.0 mi Calm Calm - N/A   Mostly Cloudy
10:55 AM 66.2 °F 66.2 °F 100% 29.91 in 8.0 mi Calm Calm - 0.01 in   Mostly Cloudy
11:15 AM 66.2 °F 66.2 °F 100% 29.92 in 10.0 mi Calm Calm - N/A   Mostly Cloudy
11:35 AM 68.0 °F 66.2 °F 94% 29.93 in 9.0 mi Calm Calm - N/A   Mostly Cloudy
11:55 AM 68.0 °F 66.2 °F 94% 29.93 in 10.0 mi Calm Calm - N/A   Overcast
12:15 PM 66.2 °F 66.2 °F 100% 29.94 in 10.0 mi Calm Calm - 0.01 in Rain Light Rain
12:35 PM 68.0 °F 66.2 °F 94% 29.94 in 10.0 mi Calm Calm - 0.01 in   Mostly Cloudy
12:55 PM 68.0 °F 66.2 °F 94% 29.95 in 9.0 mi Calm Calm - 0.01 in   Mostly Cloudy
1:15 PM 66.2 °F 66.2 °F 100% 29.95 in 2.5 mi Calm Calm - 0.06 in Rain Light Rain
1:35 PM 68.0 °F 68.0 °F 100% 29.94 in 10.0 mi Calm Calm - 0.06 in   Mostly Cloudy
1:55 PM 71.6 °F 68.0 °F 88% 29.95 in 10.0 mi Calm Calm - 0.06 in   Mostly Cloudy
2:15 PM 71.6 °F 68.0 °F 88% 29.95 in 10.0 mi Calm Calm - N/A   Mostly Cloudy
2:35 PM 71.6 °F 68.0 °F 88% 29.96 in 10.0 mi Calm Calm - N/A Rain Light Rain
2:55 PM 73.4 °F 68.0 °F 83% 29.95 in 10.0 mi Calm Calm - N/A   Scattered Clouds
3:15 PM 73.4 °F 66.2 °F 78% 29.95 in 10.0 mi Calm Calm - N/A   Scattered Clouds
3:35 PM 75.2 °F 66.2 °F 73% 29.94 in 10.0 mi Calm Calm - N/A   Mostly Cloudy
3:55 PM 73.4 °F 66.2 °F 78% 29.94 in 10.0 mi Calm Calm - N/A   Mostly Cloudy
4:15 PM 73.4 °F 66.2 °F 78% 29.93 in 10.0 mi Calm Calm - N/A   Mostly Cloudy
4:35 PM 73.4 °F 66.2 °F 78% 29.95 in 7.0 mi WSW 4.6 mph - 0.01 in Rain Light Rain
4:55 PM 68.0 °F 68.0 °F 100% 29.95 in 7.0 mi Calm Calm - 0.04 in Rain Light Rain
5:15 PM 66.2 °F 66.2 °F 100% 29.97 in 0.8 mi Calm Calm - 0.21 in Rain Heavy Rain
5:35 PM 68.0 °F 66.2 °F 94% 29.97 in 10.0 mi Calm Calm - 0.22 in   Overcast
5:55 PM 66.2 °F 66.2 °F 100% 29.98 in 3.0 mi Calm Calm - 0.25 in Rain Rain
6:15 PM 66.2 °F 66.2 °F 100% 29.98 in 5.0 mi Calm Calm - 0.02 in Rain Light Rain
6:35 PM 66.2 °F 66.2 °F 100% 29.98 in 10.0 mi Calm Calm - 0.02 in   Mostly Cloudy
6:55 PM 66.2 °F 66.2 °F 100% 29.99 in 8.0 mi Calm Calm - 0.03 in Rain Light Rain
7:15 PM 66.2 °F 66.2 °F 100% 29.99 in 4.0 mi Calm Calm - 0.03 in Rain Light Rain
7:35 PM 66.2 °F 66.2 °F 100% 29.99 in 10.0 mi Calm Calm - 0.03 in   Mostly Cloudy
7:55 PM 66.2 °F 66.2 °F 100% 30.00 in 10.0 mi Calm Calm - 0.03 in   Mostly Cloudy
8:15 PM 66.2 °F 66.2 °F 100% 30.01 in 10.0 mi Calm Calm - N/A   Mostly Cloudy
8:35 PM 66.2 °F 66.2 °F 100% 30.01 in 10.0 mi Calm Calm - N/A   Mostly Cloudy
8:55 PM 66.2 °F 66.2 °F 100% 30.02 in 9.0 mi Calm Calm - 0.01 in   Mostly Cloudy
9:15 PM 64.4 °F 64.4 °F 100% 30.02 in 10.0 mi Calm Calm - 0.01 in   Mostly Cloudy
9:35 PM 64.4 °F 64.4 °F 100% 30.02 in 10.0 mi Calm Calm - 0.01 in   Overcast
9:55 PM 64.4 °F 64.4 °F 100% 30.02 in 10.0 mi Calm Calm - 0.01 in   Mostly Cloudy
10:15 PM 62.6 °F 62.6 °F 100% 30.03 in 8.0 mi Calm Calm - N/A   Mostly Cloudy
10:35 PM 64.4 °F 64.4 °F 100% 30.04 in 10.0 mi Calm Calm - N/A   Mostly Cloudy
10:55 PM 64.4 °F 64.4 °F 100% 30.04 in 9.0 mi Calm Calm - N/A Rain Light Rain
11:15 PM 64.4 °F 64.4 °F 100% 30.05 in 4.0 mi Calm Calm - 0.01 in Rain Light Rain
11:35 PM 64.4 °F 64.4 °F 100% 30.05 in 10.0 mi Calm Calm - 0.01 in   Mostly Cloudy
11:55 PM 64.4 °F 62.6 °F 94% 30.06 in 10.0 mi Calm Calm - 0.01 in   Scattered Clouds